Location: Washington
(38.8950°N, 77.0370°W)
Time: 11:41:16
(UTC-04:00)

ISS - All Passes

Search period start: 27 March 2015 00:00
Search period end: 06 April 2015 00:00
Orbit: 396 x 406 km, 51.6° (Epoch: 27 March)

Date Brightness Start Highest point End Pass type
(mag) Time Alt. Az. Time Alt. Az. Time Alt. Az.
27 Mar - 00:09:22 10° SW 00:12:36 69° SE 00:15:50 10° NE night (unlit)
27 Mar - 01:46:56 10° WNW 01:49:18 18° NNW 01:51:39 10° NNE night (unlit)
27 Mar - 05:02:42 10° NNW 05:04:19 13° NNE 05:05:57 10° NE visible
27 Mar - 06:38:07 10° NW 06:41:18 55° NE 06:44:28 10° ESE daylight
27 Mar - 08:15:41 10° W 08:17:24 14° SW 08:19:03 10° SSW daylight
27 Mar - 23:16:25 10° SSW 23:19:20 32° SE 23:22:18 10° ENE night (unlit)
28 Mar - 00:52:54 10° W 00:55:46 28° NNW 00:58:37 10° NNE night (unlit)
28 Mar - 02:32:48 10° NNW 02:33:02 10° N 02:33:14 10° N night (unlit)
28 Mar - 04:10:03 10° N 04:10:39 10° N 04:11:16 10° NNE visible
28 Mar - 05:44:58 10° NW 05:47:52 30° NNE 05:50:47 10° E visible
28 Mar - 07:21:25 10° WNW 07:24:14 27° SW 07:27:00 10° SSE daylight
28 Mar - 22:24:06 10° S 22:26:07 16° SE 22:28:14 10° E night (unlit)
28 Mar - 23:59:07 10° WSW 00:02:17 48° NW 00:05:27 10° NE night (unlit)
29 Mar - 01:37:48 10° NW 01:39:19 12° NNW 01:40:48 10° NNE night (unlit)
29 Mar - 04:51:53 10° NNW 04:54:19 19° NNE 04:56:47 10° ENE visible
29 Mar - 06:27:47 10° WNW 06:30:58 59° SW 06:34:08 10° SE visible
29 Mar - 23:05:37 10° SW 23:08:52 82° SE 23:12:08 10° NE night (unlit)
30 Mar - 00:43:24 10° WNW 00:45:39 17° NNW 00:47:51 10° NNE night (unlit)
30 Mar - 03:58:52 10° NNW 04:00:39 14° NNE 04:02:29 10° NE visible
30 Mar - 05:34:22 10° NW 05:37:35 65° NE 05:40:47 10° ESE visible
30 Mar - 07:12:26 10° WSW 07:13:38 11° SW 07:14:42 10° SSW daylight
30 Mar - 22:12:28 10° SSW 22:15:32 37° SE 22:18:35 10° ENE night (unlit)
30 Mar - 23:49:13 10° W 23:52:00 25° NNW 23:54:45 10° NNE night (unlit)
31 Mar - 03:06:01 10° N 03:06:54 11° NNE 03:07:51 10° NNE night (unlit)
31 Mar - 04:41:05 10° NW 04:44:05 34° NNE 04:47:05 10° E visible
31 Mar - 06:17:43 10° WNW 06:20:22 23° SW 06:22:59 10° S visible
31 Mar - 21:19:53 10° S 21:22:12 18° SE 21:24:35 10° E night (unlit)
31 Mar - 22:55:17 10° WSW 22:58:25 42° NNW 23:01:32 10° NE night (unlit)
01 Apr - 00:34:11 10° NW 00:35:30 12° NNW 00:36:47 10° N night (unlit)
01 Apr - 03:47:54 10° NNW 03:50:27 21° NNE 03:53:03 10° ENE visible
01 Apr - 05:23:54 10° WNW 05:27:02 49° SW 05:30:09 10° SSE visible
01 Apr - 22:01:38 10° SW 22:04:54 84° NW 22:08:10 10° NE night (unlit)
01 Apr - 23:39:37 10° WNW 23:41:43 16° NNW 23:43:47 10° NNE night (unlit)
02 Apr - 02:54:46 10° NNW 02:56:44 15° NNE 02:58:43 10° ENE night (unlit)
02 Apr - 04:30:21 10° NW 04:33:35 77° NE 04:36:49 10° SE visible
02 Apr - 21:08:19 10° SSW 21:11:26 44° SE 21:14:34 10° ENE visible
02 Apr - 22:45:17 10° W 22:47:58 23° NNW 22:50:38 10° NNE night (unlit)
03 Apr - 02:01:46 10° N 02:02:54 11° NNE 02:04:05 10° NE night (unlit)
03 Apr - 03:36:57 10° NW 03:40:02 38° NNE 03:43:04 10° ESE night (unlit)
03 Apr - 05:13:47 10° W 05:16:15 20° SW 05:18:40 10° S visible
03 Apr - 20:15:29 10° S 20:18:01 21° SE 20:20:36 10° E visible
03 Apr - 21:51:13 10° WSW 21:54:16 37° NNW 21:57:21 10° NE visible
03 Apr - 23:30:17 10° NNW 23:31:25 11° NNW 23:32:30 10° N night (unlit)
04 Apr - 02:43:39 10° NNW 02:46:20 23° NNE 02:49:01 10° E night (unlit)
04 Apr - 04:19:46 10° WNW 04:22:51 41° SW 04:25:53 10° SSE night (unlit)
04 Apr - 19:24:00 10° SE 19:24:38 11° SE 19:25:25 10° ESE daylight
04 Apr - 20:57:24 10° WSW 21:00:39 72° NW 21:03:55 10° NE visible
04 Apr - 22:35:34 10° WNW 22:37:31 15° NNW 22:39:27 10° NNE visible
05 Apr - 01:50:25 10° NNW 01:52:31 16° NNE 01:54:40 10° ENE night (unlit)
05 Apr - 03:26:04 10° NW 03:29:19 89° N 03:32:33 10° SE night (unlit)
05 Apr - 20:03:55 10° SW 20:07:05 52° SE 20:10:17 10° ENE visible
05 Apr - 21:41:07 10° WNW 21:43:41 21° NNW 21:46:14 10° NNE visible
